カタログに戻る

CZ-2D DEB

運用中SSO
NORAD 47974·DEBRIS·🇨🇳 China

打ち上げ Sep 25, 2019 から Jiuquan Satellite Launch Center

Loading…

次のパス (今後24時間)

TLE

最新Source: Space-Track

元期: Sep 14, 2026, 04:18 UTC

1 47974U 19063D   26257.17923789  .00000377  00000-0  12411-3 0  9997
2 47974  98.4575 333.3851 0022988 262.6563  97.2014 14.43518385300442

AllMySatでCZ-2D DEBをリアルタイム追跡

Download on the App Store